Regional Weather Roundup
Issued by NWS

Home | Current Version | Previous Version | Graphics & Text | Print | Product List | Glossary On
Versions: 1 2 3 4 5 6 7 8 9 10 11 12 13 14 15 16 17 18 19 20 21 22 23 24 25 26 27 28 29 30 31 32 33 34 35 36 37 38 39 40 41 42 43 44 45 46 47 48 49 50
000
ASUS43 KIND 091659
RWRIN

WEATHER ROUNDUP FOR INDIANA
NATIONAL WEATHER SERVICE INDIANAPOLIS IN
100 PM EDT WED JUL 09 2014

NOTE: "FAIR" INDICATES FEW OR NO CLOUDS BELOW 12,000 FEET WITH NO
SIGNIFICANT WEATHER AND/OR OBSTRUCTIONS TO VISIBILITY.

* - STATION DOES NOT REPORT WEATHER SUCH AS PRECIPITATION OR FOG.

+ - STATION NOT QUALITY CONTROLLED BY THE NATIONAL WEATHER SERVICE.
    USE DATA WITH CAUTION...ESPECIALLY DEWPOINT AND RELATIVE
    HUMIDITY OBSERVATIONS.

INZ001>003-010>013-019-020-091800-
NORTHWEST INDIANA

CITY           SKY/WX    TMP DP  RH WIND       PRES   REMARKS
GARY /AIRPORT/ MOSUNNY   72  63  73 NE8       29.95
VALPARAISO     SUNNY     75  59  57 VRB7      29.96R

$$

LMZ046-743>745-091800-
SOUTHERN LAKE MICHIGAN

STATION/POSITION TIME  TEMP WIND        PRES
                       AIR  DIR/SP/G
                 (UTC) (F)  (DEG/KT/KT) (MB)
MICHIGAN CITY    1600   65  350/  7/ 10   N/A

$$

INZ004-005-014>016-021>024-091800-
NORTH CENTRAL INDIANA

CITY           SKY/WX    TMP DP  RH WIND       PRES   REMARKS
GOSHEN         MOSUNNY   73  59  61 NW15G22   29.94R
SOUTH BEND     MOSUNNY   74  56  53 N12       29.95S

$$

INZ006>009-017-018-025>027-091800-
NORTHEAST INDIANA

CITY           SKY/WX    TMP DP  RH WIND       PRES   REMARKS
ANGOLA *+      MOSUNNY   75  59  57 NW12      29.93R
FORT WAYNE     PTSUNNY   79  58  48 W13G18    29.93S

$$

INZ028-029-035-036-043>045-051>053-091800-
WEST CENTRAL INDIANA

CITY           SKY/WX    TMP DP  RH WIND       PRES   REMARKS
GREENCASTLE +  MOSUNNY   77  63  61 W6        29.98S
LAFAYETTE      MOSUNNY   78  58  49 NW14G21   29.96R
TERRE HAUTE    MOSUNNY   80  64  58 W12       29.98S

$$

INZ030>032-037>040-046>048-054>057-064-065-091800-
CENTRAL INDIANA

CITY           SKY/WX    TMP DP  RH WIND       PRES   REMARKS
INDIANAPOLIS   PTSUNNY   77  59  53 W9        29.96S
-EAGLE CREEK   MOSUNNY   79  59  50 W13G18    29.96S
KOKOMO *+      MOSUNNY   79  59  50 W14       29.95S
MT COMFORT *+  SUNNY     79  59  50 W10G18    29.97S
SHELBYVILLE    PTSUNNY   79  60  52 SW9       29.97S

$$

INZ033-034-041-042-049-050-058-059-091800-
EAST CENTRAL INDIANA

CITY           SKY/WX    TMP DP  RH WIND       PRES   REMARKS
MUNCIE         PTSUNNY   76  60  57 W14       29.95S

$$

INZ060-061-067>069-081>083-085>088-091800-
SOUTHWEST INDIANA

CITY           SKY/WX    TMP DP  RH WIND       PRES   REMARKS
EVANSVILLE     MOSUNNY   82  58  43 NW6       30.00F
HUNTINGBURG *+ PTSUNNY   82  61  47 NW8       30.00F

$$

INZ062-063-066-070>080-084-089>092-091800-
SOUTH CENTRAL AND SOUTHEAST INDIANA

CITY           SKY/WX    TMP DP  RH WIND       PRES   REMARKS
BLOOMINGTON    PTSUNNY   79  60  52 VRB7      29.99S
SEYMOUR +      SUNNY     77  41  27 W10G18    29.98

$$




USA.gov is the U.S. government's official web portal to all federal, state and local government web resources and services.